Location: Schommer Observatory
(40.5200°N, 74.4500°W)
Time: 14:23:03
(UTC-04:00)

ISS - Pass Details

Date: 27 December 2017
Orbit: 403 x 406 km, 51.6° (Epoch: 26 April)

Event Time Altitude Azimuth Distance (km) Brightness Sun altitude
Rises 06:01:28 0° 216° (SW) 2,323 -0.2 -14.4°
Reaches altitude 10° 06:03:36 10° 209° (SSW) 1,469 -1.1 -14.1°
Maximum altitude 06:06:44 41° 137° (SE) 609 -2.4 -13.5°
Drops below altitude 10° 06:09:54 10° 66° (ENE) 1,484 -0.3 -12.9°
Sets 06:12:03 0° 59° (ENE) 2,352 0.6 -12.5°
